Location: Hradec Kralove
(50.2170°N, 15.8330°E)
Time: 09:02:46
(UTC+01:00)

X-37B - Pass Details

Date: 16 December 2022
Orbit: 277 x 277 km, 45.0° (Epoch: 01 November)

Event Time Altitude Azimuth Distance (km) Brightness Sun altitude
Rises 17:02:16 0° 259° (W) 1,915 5.9 -10.2°
Reaches altitude 10° 17:04:24 10° 242° (WSW) 1,102 4.5 -10.5°
Maximum altitude 17:06:23 21° 189° (S) 691 2.2 -10.8°
Drops below altitude 10° 17:08:21 10° 135° (SE) 1,100 2.7 -11.1°
Enters shadow 17:08:58 - 128° (SE) 1,322 3.0 -11.2°
